This demonstration page uses our WeatherBlox Daily Observations layout. Learn more.

36.17497, -115.13722

Hourly Observations for July 25, 2016

Temp ( °F °C ) Dew Point ( °F °C ) Humidity (%) Winds ( mph kmh ) Pressure ( in mb ) Visibility ( mi km ) Precip ( " mm )
12:53 am 00:53 Clear 96 35.6 36 2.2 12 12 SSW 10 17 29.62 1003 10 16.09344 0 0
1:53 am 01:53 Clear 93 33.9 33 0.6 12 12 SW 5 7 29.68 1005 10 16.09344 0 0
2:53 am 02:53 Clear 90 32.2 44 6.7 20 20 Calm 29.68 1005 10 16.09344 0 0
3:53 am 03:53 Clear 86 30 45 7.2 24 24 WNW 5 7 29.71 1006 10 16.09344 0 0
4:53 am 04:53 Clear 84 28.9 46 7.8 27 27 NNW 3 6 29.74 1007 10 16.09344 0 0
5:53 am 05:53 Sunny 86 30 40 4.4 20 20 Calm 29.77 1008 8 12.874752 0 0
6:53 am 06:53 Sunny 87 30.6 44 6.7 22 22 Calm 29.77 1008 7 11.265408 0 0
7:53 am 07:53 Sunny 90 32.2 41 5 18 18 Calm 29.77 1008 7 11.265408 0 0
8:53 am 08:53 Sunny 94 34.4 38 3.3 14 14 SE 9 15 29.77 1008 8 12.874752 0 0
9:53 am 09:53 Sunny 95 35 51 10.6 23 23 ESE 12 19 29.77 1008 10 16.09344 0 0
10:53 am 10:53 Sunny 100 37.8 50 10 18 18 ESE 10 17 29.74 1007 10 16.09344 0 0
11:53 am 11:53 Sunny 103 39.4 45 7.2 14 14 SE 14 22 29.71 1006 10 16.09344 0 0
12:53 pm 12:53 Sunny 106 41.1 43 6.1 12 12 undefined N/A 29.65 1004 10 16.09344 0 0
1:53 pm 13:53 Sunny 109 42.8 41 5 10 10 SSW 18 30 29.62 1003 10 16.09344 0 0
2:53 pm 14:53 Sunny 110 43.3 39 3.9 9 9 SW 18 30 29.59 1002 10 16.09344 0 0
3:53 pm 15:53 Sunny 109 42.8 39 3.9 9 9 S 10 17 29.59 1002 10 16.09344 0 0
4:53 pm 16:53 Sunny 109 42.8 40 4.4 9 9 S 8 13 29.56 1001 10 16.09344 0 0
5:53 pm 17:53 Sunny 108 42.2 39 3.9 9 9 SSW 8 13 29.56 1001 10 16.09344 0 0
6:53 pm 18:53 Sunny 107 41.7 39 3.9 10 10 S 8 13 29.56 1001 10 16.09344 0 0
7:53 pm 19:53 Clear 105 40.6 39 3.9 10 10 SSW 8 13 29.56 1001 10 16.09344 0 0
8:53 pm 20:53 Clear 102 38.9 40 4.4 12 12 SSW 8 13 29.56 1001 10 16.09344 0 0
9:53 pm 21:53 Clear 100 37.8 40 4.4 13 13 S 7 11 29.62 1003 10 16.09344 0 0
10:53 pm 22:53 Clear 97 36.1 41 5 14 14 S 8 13 29.62 1003 10 16.09344 0 0
11:53 pm 23:53 Clear 95 35 42 5.6 16 16 SE 3 6 29.68 1005 10 16.09344 0 0

Powered by AerisWeather